[[{"header":{"parameterUnit":"m.s-1","parameterCategory":1,"la1":30.2991,"la2":30.254,"lo1":-89.0895,"lo2":-89.0444,"dy":0.0017,"dx":0.0017,"nx":28,"ny":28,"refTime":"2026-02-08T09:00:00:Z","depth":0,"parameterNumber":2,"parameterNumberName":"U-component_of_WINDS"},"data":[0,0,0,0,0,0,0,0,0,0,0,0,0,0,0,0,0,0,0,0,0,0,0,0,0,0,0,0,0,0,0,0,0,0,0,0,0,0,0,0,0,0,0,0,0,0,0,0,0,0,0,0,0,0,0,0,0,0,-0.8661,-0.8661,0,-0.8723,-0.8724,-0.8724,-0.8748,-0.8748,-0.8747,-0.8747,-0.8809,-0.8811,-0.8813,0,0,0,0,0,0,0,0,0,0,0,0,0,-0.8561,-0.8563,-0.8661,-0.8661,-0.8662,-0.8723,-0.8724,-0.8724,-0.8748,-0.8748,-0.8747,-0.8747,-0.8809,-0.8811,-0.8813,0,0,0,0,0,0,0,0,0,0,0,0,0,-0.8612,-0.8563,-0.866,-0.8681,-0.8684,-0.8723,-0.8724,-0.8725,-0.8748,-0.8748,-0.8747,-0.8747,-0.8808,-0.8811,-0.8813,-0.8836,0,0,-0.8822,-0.8823,0,0,0,0,0,0,0,0,-0.8609,-0.8616,-0.8677,-0.868,-0.8683,-0.8727,-0.8711,-0.8762,-0.8748,-0.8723,-0.8747,-0.8747,-0.8782,-0.8787,-0.8799,-0.8839,-0.8841,-0.8822,-0.8824,-0.8825,-0.8825,0,0,0,0,0,0,0,-0.8605,-0.8613,-0.8685,-0.8678,-0.8681,-0.8687,-0.8694,-0.8721,-0.8753,-0.8726,-0.8727,-0.8735,-0.8783,-0.8796,-0.8801,-0.8842,-0.8822,-0.8824,-0.8826,-0.8827,-0.8904,-0.8904,0,0,0,0,0,0,-0.8599,-0.861,-0.8683,-0.8687,-0.8644,-0.8689,-0.8697,-0.8713,-0.8753,-0.8759,-0.8735,-0.8735,-0.8792,-0.8798,-0.8803,-0.8832,-0.8825,-0.8827,-0.8829,-0.8903,-0.8904,-0.8904,0,0,0,0,0,0,-0.8596,-0.8605,-0.8681,-0.8649,-0.8659,-0.8691,-0.8709,-0.8715,-0.8728,-0.876,-0.8766,-0.8742,-0.8792,-0.8799,-0.8828,-0.8835,-0.8828,-0.8831,-0.8903,-0.8903,-0.8904,-0.8891,0,0,0,0,0,0,-0.8593,-0.8604,-0.8613,-0.8649,-0.8661,-0.8705,-0.871,-0.8716,-0.8733,-0.8734,-0.8769,-0.8774,-0.8792,-0.8823,-0.883,-0.8838,-0.8833,-0.8902,-0.8903,-0.8904,-0.889,-0.8891,-0.8891,0,0,0,0,0,-0.859,-0.8606,-0.8613,-0.8622,-0.8673,-0.8705,-0.8712,-0.8733,-0.8733,-0.8742,-0.8763,-0.8773,-0.8833,-0.8826,-0.8834,-0.8843,-0.8902,-0.8903,-0.8904,-0.889,-0.8891,-0.8891,0,0,0,0,0,0,-0.8569,-0.8611,-0.862,-0.8648,-0.8673,-0.8709,-0.8721,-0.8732,-0.8756,-0.8757,-0.8781,-0.8789,-0.8816,-0.8832,-0.8824,-0.8867,-0.8868,-0.8871,-0.8855,-0.8856,-0.8856,-0.8851,-0.8835,0,0,0,0,0,-0.8568,-0.8591,-0.8627,-0.8648,-0.866,-0.8689,-0.8703,-0.8718,-0.8744,-0.8754,-0.8777,-0.8802,-0.8827,-0.8842,-0.8866,-0.8893,-0.8901,-0.8903,-0.8903,-0.8903,-0.8905,-0.8921,-0.8922,-0.8907,-0.8907,-0.8907,0,0,-0.8566,-0.8592,-0.8605,-0.8645,-0.8666,-0.8689,-0.8697,-0.8721,-0.8738,-0.8758,-0.8786,-0.8804,-0.8833,-0.8861,-0.8875,-0.8876,-0.8911,-0.8904,-0.8904,-0.8906,-0.8922,-0.8923,-0.8924,-0.8908,-0.8908,-0.8908,0,0,-0.8574,-0.8596,-0.8616,-0.8637,-0.8669,-0.8688,-0.8693,-0.8727,-0.874,-0.877,-0.8785,-0.8805,-0.8847,-0.8867,-0.8883,-0.89,-0.891,-0.8907,-0.8907,-0.8922,-0.8923,-0.8925,-0.893,-0.8932,-0.8909,-0.8909,-0.8909,0,-0.8567,-0.8603,-0.8626,-0.8649,-0.8666,-0.8686,-0.8707,-0.8726,-0.8764,-0.8775,-0.8776,-0.883,-0.8851,-0.8884,-0.8888,-0.89,-0.8906,-0.8903,-0.8922,-0.8923,-0.8924,-0.893,-0.8932,-0.8908,-0.8908,-0.8908,-0.8908,0,-0.8593,-0.8617,-0.863,-0.8667,-0.8686,-0.8708,-0.8734,-0.875,-0.8763,-0.8782,-0.8811,-0.8838,-0.8868,-0.8877,-0.8889,-0.8912,-0.8912,-0.8917,-0.8918,-0.8925,-0.8931,-0.8933,-0.8907,-0.8907,-0.8908,-0.8908,0,0,-0.8588,-0.8638,-0.8643,-0.866,-0.8697,-0.8716,-0.8739,-0.8769,-0.8783,-0.8808,-0.8828,-0.8864,-0.8869,-0.8887,-0.8902,-0.8915,-0.8927,-0.8919,-0.892,-0.8919,-0.8953,-0.8949,-0.8951,-0.8934,-0.8934,-0.8935,-0.8951,0,-0.8601,-0.8644,-0.8666,-0.8699,-0.8722,-0.8741,-0.8761,-0.8786,-0.8804,-0.8826,-0.8846,-0.8871,-0.8876,-0.8887,-0.8901,-0.8922,-0.8934,-0.8921,-0.8952,-0.8953,-0.8944,-0.8954,-0.895,-0.8964,-0.8953,-0.8954,-0.8954,0,-0.8621,-0.8647,-0.8683,-0.8718,-0.8728,-0.8746,-0.8776,-0.8797,-0.8825,-0.8838,-0.8858,-0.8873,-0.8898,-0.8898,-0.8932,-0.8924,-0.8938,-0.895,-0.8951,-0.8954,-0.8954,-0.8958,-0.8969,-0.8971,-0.8958,-0.8958,-0.8957,0,-0.8614,-0.8659,-0.8686,-0.87,-0.8741,-0.8753,-0.8771,-0.8799,-0.8816,-0.8842,-0.8853,-0.8882,-0.8897,-0.8918,-0.894,-0.8938,-0.8973,-0.8975,-0.8983,-0.8983,-0.8989,-0.8989,-0.9002,-0.8999,-0.8999,-0.8999,-0.8999,0,-0.8626,-0.8647,-0.8684,-0.87,-0.8725,-0.875,-0.8773,-0.8792,-0.8817,-0.8838,-0.8856,-0.8875,-0.8903,-0.8925,-0.8942,-0.8969,-0.8975,-0.8986,-0.899,-0.8984,-0.8983,-0.8993,-0.8993,-0.8999,-0.8999,-0.8999,-0.8999,0,-0.8623,-0.8648,-0.8679,-0.8716,-0.8726,-0.8742,-0.8773,-0.879,-0.881,-0.8835,-0.8843,-0.8873,-0.89,-0.8925,-0.8961,-0.8972,-0.8999,-0.9004,-0.8989,-0.8992,-0.8999,-0.8998,-0.902,-0.9024,-0.9018,-0.9018,-0.9018,0,-0.8628,-0.8645,-0.8684,-0.8699,-0.8717,-0.8742,-0.8759,-0.8785,-0.8802,-0.8836,-0.8849,-0.8878,-0.8902,-0.8945,-0.897,-0.8997,-0.9003,-0.9009,-0.9008,-0.9001,-0.9003,-0.9002,-0.9004,-0.9009,-0.9009,-0.9009,-0.9009,0,-0.8636,-0.8647,-0.8673,-0.8702,-0.8723,-0.8747,-0.8772,-0.8784,-0.8814,-0.8833,-0.8861,-0.888,-0.8917,-0.8946,-0.8976,-0.8994,-0.9006,-0.9009,-0.9013,-0.9007,-0.8997,-0.9002,-0.8989,-0.9008,-0.9008,-0.9008,-0.9009,-0.9009,-0.8637,-0.8653,-0.8683,-0.871,-0.8732,-0.8755,-0.8773,-0.8795,-0.882,-0.8852,-0.8866,-0.8895,-0.8923,-0.8966,-0.8983,-0.9006,-0.9008,-0.9013,-0.9015,-0.9015,-0.9014,-0.8994,-0.9012,-0.9012,-0.9012,-0.9012,-0.9012,0,-0.8645,-0.8666,-0.8691,-0.8726,-0.8747,-0.8758,-0.8786,-0.8803,-0.8829,-0.8855,-0.8879,-0.8911,-0.8939,-0.8967,-0.8996,-0.9009,-0.9015,-0.9015,-0.9014,-0.9018,-0.9011,-0.9005,-0.901,-0.901,-0.901,-0.901,-0.901,-0.901,-0.8652,-0.868,-0.8695,-0.8734,-0.8755,-0.8784,-0.8799,-0.882,-0.8841,-0.8877,-0.8901,-0.8919,-0.8945,-0.8976,-0.9002,-0.901,-0.9019,-0.9018,-0.9027,-0.9019,-0.9019,-0.9019,-0.9013,-0.902,-0.902,-0.9033,-0.9033,-0.9033]},{"header":{"parameterUnit":"m.s-1","parameterCategory":1,"la1":30.2991,"la2":30.254,"lo1":-89.0895,"lo2":-89.0444,"dy":0.0017,"dx":0.0017,"nx":28,"ny":28,"refTime":"2026-02-08T09:00:00:Z","depth":0,"parameterNumber":3,"parameterNumberName":"V-component_of_WINDS"},"data":[0,0,0,0,0,0,0,0,0,0,0,0,0,0,0,0,0,0,0,0,0,0,0,0,0,0,0,0,0,0,0,0,0,0,0,0,0,0,0,0,0,0,0,0,0,0,0,0,0,0,0,0,0,0,0,0,0,0,1.7368,1.7368,0,1.7355,1.7354,1.7354,1.7299,1.7298,1.7297,1.7295,1.7282,1.7283,1.7283,0,0,0,0,0,0,0,0,0,0,0,0,0,1.7348,1.7348,1.7368,1.7368,1.7368,1.7355,1.7354,1.7354,1.7299,1.7298,1.7296,1.7295,1.7282,1.7283,1.7284,0,0,0,0,0,0,0,0,0,0,0,0,0,1.7348,1.7348,1.7368,1.7339,1.7336,1.7355,1.7354,1.7354,1.73,1.7298,1.7296,1.7294,1.7281,1.7282,1.7284,1.733,0,0,1.7287,1.7288,0,0,0,0,0,0,0,0,1.7348,1.7348,1.7343,1.7341,1.7338,1.7327,1.7342,1.7346,1.73,1.7313,1.7295,1.7293,1.7298,1.7298,1.73,1.7329,1.7328,1.7288,1.7288,1.7289,1.7289,0,0,0,0,0,0,0,1.7348,1.7349,1.7363,1.7343,1.734,1.7327,1.7325,1.7343,1.7317,1.7312,1.7308,1.7307,1.7296,1.7299,1.7299,1.7328,1.7288,1.7289,1.7289,1.729,1.7398,1.74,0,0,0,0,0,0,1.7352,1.7349,1.7363,1.7362,1.7338,1.7329,1.7326,1.7332,1.7316,1.7312,1.7309,1.7305,1.7297,1.7298,1.7298,1.7353,1.7289,1.729,1.7291,1.7396,1.7398,1.7401,0,0,0,0,0,0,1.7352,1.7354,1.7364,1.7355,1.7355,1.7331,1.7338,1.7333,1.7335,1.7314,1.7309,1.7316,1.7296,1.7297,1.7323,1.7352,1.7291,1.7292,1.7393,1.7397,1.74,1.7461,0,0,0,0,0,0,1.7351,1.7354,1.737,1.7355,1.7356,1.7388,1.734,1.7334,1.7337,1.7332,1.7319,1.7315,1.7294,1.7321,1.7324,1.7352,1.7293,1.7391,1.7395,1.7399,1.7457,1.7466,1.7475,0,0,0,0,0,1.7351,1.7388,1.7371,1.7373,1.7376,1.739,1.739,1.7365,1.734,1.7357,1.7344,1.7316,1.7348,1.7325,1.7327,1.7356,1.7389,1.7394,1.7398,1.7453,1.7464,1.7474,0,0,0,0,0,0,1.7405,1.7385,1.7367,1.74,1.7397,1.738,1.7401,1.7378,1.7382,1.7376,1.7346,1.7344,1.7375,1.7368,1.7342,1.7401,1.7364,1.737,1.7404,1.7415,1.7424,1.7425,1.7294,0,0,0,0,0,1.7422,1.7434,1.7416,1.7447,1.7447,1.7424,1.7429,1.7411,1.7407,1.7405,1.7394,1.7391,1.7401,1.7408,1.7415,1.7456,1.7453,1.7477,1.7486,1.7494,1.7499,1.7522,1.7533,1.7416,1.7416,1.7416,0,0,1.7454,1.7445,1.7455,1.7458,1.7453,1.7468,1.7423,1.744,1.7451,1.7407,1.7432,1.7424,1.7419,1.7454,1.7468,1.7449,1.7531,1.75,1.7506,1.7507,1.7528,1.7539,1.7549,1.742,1.7419,1.7419,0,0,1.7522,1.7516,1.7542,1.754,1.7534,1.7519,1.7526,1.7513,1.7507,1.7531,1.75,1.7513,1.753,1.7528,1.753,1.7601,1.7576,1.7605,1.7651,1.7674,1.7683,1.7691,1.7718,1.7728,1.761,1.761,1.761,0,1.7564,1.7584,1.7558,1.7578,1.7582,1.7544,1.7571,1.757,1.7567,1.7571,1.7549,1.7572,1.7565,1.76,1.7618,1.762,1.7628,1.7605,1.7684,1.7692,1.7699,1.7724,1.7734,1.7613,1.7613,1.7613,1.7612,0,1.7637,1.7652,1.7674,1.7674,1.7679,1.7703,1.7681,1.769,1.7673,1.7661,1.7688,1.768,1.7686,1.7693,1.7675,1.7726,1.7715,1.7689,1.7651,1.7714,1.7737,1.7747,1.7619,1.7617,1.7616,1.7615,0,0,1.7736,1.7724,1.7732,1.7733,1.7726,1.7737,1.776,1.7767,1.7776,1.7777,1.7796,1.7813,1.779,1.7792,1.7774,1.7794,1.7854,1.7766,1.7766,1.7784,1.7912,1.7931,1.7943,1.7838,1.7839,1.7841,1.7913,0,1.7802,1.784,1.7819,1.786,1.7875,1.7841,1.7861,1.786,1.7851,1.7862,1.7852,1.7865,1.7833,1.7834,1.7853,1.7843,1.7879,1.7837,1.7856,1.7857,1.7858,1.7955,1.7975,1.8043,1.7921,1.7923,1.7924,0,1.7882,1.7888,1.7931,1.7924,1.7929,1.7948,1.7954,1.7966,1.7964,1.7956,1.796,1.7938,1.7961,1.7925,1.7957,1.7929,1.7936,1.7933,1.7935,1.7935,1.7894,1.7959,1.8063,1.8074,1.7938,1.7937,1.7936,0,1.7952,1.797,1.7999,1.8,1.7992,1.8007,1.8004,1.8001,1.8007,1.8013,1.8018,1.8026,1.8031,1.8038,1.802,1.7995,1.8056,1.8017,1.8051,1.8052,1.8065,1.8064,1.8173,1.8069,1.8069,1.8069,1.8069,0,1.8027,1.8056,1.8031,1.8048,1.808,1.8056,1.8088,1.8082,1.808,1.8097,1.8068,1.8085,1.8059,1.8074,1.806,1.809,1.8092,1.8087,1.8083,1.809,1.8091,1.8094,1.8089,1.8071,1.8071,1.807,1.807,0,1.811,1.8094,1.8124,1.8115,1.8114,1.8137,1.813,1.8147,1.8136,1.8158,1.8162,1.8146,1.8162,1.8145,1.8159,1.815,1.8191,1.818,1.8192,1.8189,1.8224,1.8221,1.8338,1.8353,1.824,1.8241,1.8242,0,1.8159,1.818,1.8175,1.8184,1.8184,1.8199,1.8206,1.8185,1.8194,1.8196,1.8213,1.8227,1.8236,1.8264,1.8254,1.8265,1.8255,1.8295,1.8256,1.8263,1.8257,1.8256,1.8259,1.8303,1.8304,1.8305,1.8306,0,1.8248,1.824,1.8252,1.8262,1.8272,1.8279,1.8283,1.8293,1.8271,1.8283,1.8299,1.8307,1.8323,1.8338,1.8347,1.8345,1.8323,1.8319,1.8328,1.8335,1.8341,1.8339,1.8214,1.8316,1.8315,1.8314,1.8314,1.8313,1.8316,1.8334,1.8334,1.8349,1.8351,1.8356,1.8372,1.8365,1.8378,1.839,1.8377,1.8398,1.8399,1.8409,1.841,1.8427,1.841,1.8422,1.8425,1.8428,1.8434,1.8339,1.8428,1.8428,1.8428,1.8427,1.8427,0,1.8405,1.8404,1.8418,1.8426,1.8438,1.8417,1.8422,1.8434,1.8453,1.8455,1.8467,1.8487,1.8502,1.8494,1.8508,1.8523,1.8513,1.8527,1.8526,1.8526,1.8448,1.844,1.8535,1.8535,1.8535,1.8535,1.8535,1.8535,1.8452,1.8483,1.8476,1.8508,1.8506,1.8527,1.8532,1.8537,1.854,1.8564,1.8577,1.8572,1.8571,1.8585,1.8598,1.8596,1.8602,1.862,1.8614,1.8542,1.8531,1.8521,1.8513,1.8622,1.8622,1.8691,1.8691,1.8692]}]]